[[{"header":{"parameterUnit":"m.s-1","parameterCategory":1,"la1":30.2991,"la2":30.254,"lo1":-89.0895,"lo2":-89.0444,"dy":0.0017,"dx":0.0017,"nx":28,"ny":28,"refTime":"2025-07-14T09:00:00:Z","depth":0,"parameterNumber":2,"parameterNumberName":"U-component_of_WINDS"},"data":[0,0,0,0,0,0,0,0,0,0,0,0,0,0,0,0,0,0,0,0,0,0,0,0,0,0,0,0,0,0,0,0,0,0,0,0,0,0,0,0,0,0,0,0,0,0,0,0,0,0,0,0,0,0,0,0,0,0,2.3914,2.3915,0,2.4074,2.4076,2.4077,2.4111,2.411,2.4109,2.4108,2.4273,2.4278,2.4284,0,0,0,0,0,0,0,0,0,0,0,0,0,2.3638,2.3643,2.3913,2.3915,2.3918,2.4073,2.4076,2.4078,2.4112,2.411,2.4109,2.4107,2.4271,2.4278,2.4284,0,0,0,0,0,0,0,0,0,0,0,0,0,2.3774,2.3644,2.3913,2.3953,2.3958,2.4073,2.4076,2.4078,2.4112,2.411,2.4108,2.4107,2.4269,2.4277,2.4285,2.4372,0,0,2.4311,2.4314,0,0,0,0,0,0,0,0,2.3766,2.3784,2.3945,2.3951,2.3957,2.4071,2.4039,2.4177,2.4112,2.4054,2.4108,2.4106,2.4207,2.4221,2.4255,2.438,2.4387,2.4311,2.4316,2.432,2.4322,0,0,0,0,0,0,0,2.3756,2.3777,2.3977,2.3947,2.3954,2.3963,2.3981,2.4065,2.4139,2.4059,2.4061,2.408,2.421,2.4246,2.4259,2.4389,2.4311,2.4318,2.4324,2.4327,2.4594,2.4596,0,0,0,0,0,0,2.374,2.3769,2.3972,2.3982,2.3855,2.397,2.3989,2.4036,2.4138,2.4151,2.4081,2.4081,2.4233,2.4249,2.4265,2.4372,2.432,2.4328,2.4332,2.4591,2.4594,2.4596,0,0,0,0,0,0,2.3734,2.3758,2.3965,2.3876,2.3903,2.3976,2.4029,2.404,2.4076,2.4155,2.4168,2.4105,2.4232,2.4253,2.4345,2.4378,2.4331,2.4339,2.4589,2.4592,2.4595,2.4588,0,0,0,0,0,0,2.3726,2.3755,2.3789,2.3877,2.3908,2.4042,2.4031,2.4044,2.409,2.4091,2.4181,2.4194,2.4233,2.4332,2.4353,2.4389,2.4345,2.4586,2.459,2.4594,2.4585,2.459,2.4595,0,0,0,0,0,2.3716,2.3781,2.379,2.3814,2.3951,2.4044,2.4062,2.4105,2.4093,2.4127,2.4178,2.4191,2.4372,2.4341,2.4365,2.4404,2.4584,2.4589,2.4594,2.4583,2.4589,2.4595,0,0,0,0,0,0,2.3695,2.3793,2.3804,2.39,2.3963,2.405,2.4094,2.4111,2.418,2.4178,2.4229,2.4249,2.4337,2.438,2.4345,2.4493,2.4477,2.4487,2.4461,2.4468,2.4472,2.446,2.4352,0,0,0,0,0,2.3701,2.3768,2.3851,2.3927,2.3958,2.4021,2.4063,2.4091,2.4159,2.4186,2.4243,2.4309,2.4381,2.4427,2.4498,2.4593,2.4612,2.4631,2.4635,2.4639,2.4646,2.4699,2.4708,2.4612,2.4612,2.4612,0,0,2.3715,2.3777,2.3816,2.3924,2.3977,2.4045,2.4043,2.4116,2.4167,2.4197,2.4287,2.4331,2.4409,2.4502,2.4546,2.4541,2.4677,2.4645,2.4647,2.4653,2.4705,2.4714,2.4722,2.4615,2.4615,2.4614,0,0,2.3775,2.3829,2.3897,2.395,2.403,2.4071,2.4088,2.4172,2.4203,2.4294,2.4318,2.438,2.4503,2.4556,2.46,2.4681,2.4695,2.4702,2.4726,2.4777,2.4784,2.4791,2.4819,2.4828,2.471,2.471,2.471,0,2.3781,2.3885,2.3931,2.4002,2.4049,2.408,2.415,2.4199,2.4298,2.4329,2.4321,2.4476,2.453,2.4636,2.4656,2.469,2.4711,2.4692,2.4779,2.4787,2.4794,2.4821,2.4832,2.471,2.471,2.471,2.471,0,2.3889,2.3961,2.4007,2.4101,2.4153,2.4224,2.428,2.4328,2.4351,2.4393,2.4486,2.4552,2.4636,2.4664,2.4688,2.4774,2.4767,2.4769,2.4754,2.4803,2.4829,2.484,2.471,2.471,2.471,2.471,0,0,2.3939,2.4057,2.4073,2.4116,2.4207,2.4263,2.4336,2.4417,2.4456,2.4524,2.4585,2.4689,2.4691,2.474,2.4771,2.4816,2.4874,2.4812,2.4815,2.482,2.4972,2.4968,2.498,2.4885,2.4887,2.4889,2.4965,0,2.4008,2.4137,2.418,2.4287,2.4354,2.4385,2.4448,2.451,2.4552,2.4615,2.4661,2.4733,2.4731,2.4761,2.4807,2.4857,2.4905,2.4853,2.4942,2.4945,2.492,2.4994,2.4991,2.5059,2.4975,2.4977,2.4979,0,2.4106,2.4174,2.4288,2.437,2.44,2.4455,2.4533,2.4593,2.4665,2.4692,2.4747,2.4775,2.4852,2.4833,2.494,2.4903,2.4943,2.4973,2.4977,2.4986,2.4963,2.5003,2.5082,2.5091,2.4995,2.4994,2.4993,0,2.4129,2.425,2.4333,2.4369,2.4467,2.4505,2.4548,2.4618,2.4664,2.4734,2.4764,2.4841,2.4883,2.4943,2.499,2.4973,2.5092,2.5078,2.5117,2.5115,2.5139,2.5136,2.5223,2.5167,2.5167,2.5167,2.5166,0,2.4201,2.4268,2.4344,2.4395,2.4472,2.4522,2.4597,2.4642,2.4704,2.4764,2.4797,2.4852,2.4913,2.4977,2.5015,2.5097,2.5116,2.514,2.5149,2.5136,2.5133,2.5162,2.5157,2.5169,2.5169,2.5168,2.5168,0,2.4238,2.4292,2.4384,2.447,2.4493,2.4546,2.4619,2.467,2.4714,2.479,2.4811,2.4879,2.4956,2.501,2.5109,2.5135,2.5223,2.5232,2.5198,2.5202,2.5237,2.5232,2.5344,2.5361,2.5294,2.5295,2.5296,0,2.428,2.4332,2.4424,2.4466,2.4509,2.4578,2.4625,2.4677,2.4725,2.4811,2.4851,2.4931,2.4996,2.5118,2.5177,2.5253,2.5264,2.5298,2.5275,2.5261,2.5263,2.5258,2.5264,2.5301,2.5301,2.5302,2.5302,0,2.4347,2.4371,2.4438,2.4515,2.457,2.4633,2.4696,2.473,2.4793,2.4845,2.4924,2.4975,2.5077,2.5155,2.5237,2.5282,2.5302,2.5309,2.5321,2.5308,2.5285,2.5297,2.5206,2.5305,2.5305,2.5305,2.5305,2.5305,2.4387,2.4435,2.4507,2.4581,2.4634,2.4692,2.4744,2.4794,2.4861,2.4947,2.4974,2.5055,2.5127,2.5239,2.5285,2.535,2.5347,2.5366,2.537,2.5374,2.5373,2.5276,2.5365,2.5365,2.5365,2.5365,2.5365,0,2.4455,2.4503,2.457,2.4657,2.4715,2.473,2.4801,2.4848,2.492,2.4984,2.5049,2.514,2.5216,2.5281,2.536,2.5399,2.5411,2.5418,2.5415,2.5425,2.5371,2.5351,2.5408,2.5408,2.5408,2.5407,2.5407,2.5407,2.4497,2.4579,2.4611,2.472,2.4768,2.4848,2.4887,2.4941,2.4993,2.5092,2.5156,2.5198,2.5263,2.5347,2.5417,2.5435,2.5462,2.5467,2.5486,2.5434,2.5429,2.5424,2.5406,2.5472,2.5472,2.5534,2.5535,2.5535]},{"header":{"parameterUnit":"m.s-1","parameterCategory":1,"la1":30.2991,"la2":30.254,"lo1":-89.0895,"lo2":-89.0444,"dy":0.0017,"dx":0.0017,"nx":28,"ny":28,"refTime":"2025-07-14T09:00:00:Z","depth":0,"parameterNumber":3,"parameterNumberName":"V-component_of_WINDS"},"data":[0,0,0,0,0,0,0,0,0,0,0,0,0,0,0,0,0,0,0,0,0,0,0,0,0,0,0,0,0,0,0,0,0,0,0,0,0,0,0,0,0,0,0,0,0,0,0,0,0,0,0,0,0,0,0,0,0,0,3.5251,3.5249,0,3.5112,3.511,3.5108,3.5025,3.5024,3.5024,3.5024,3.487,3.4867,3.4863,0,0,0,0,0,0,0,0,0,0,0,0,0,3.5435,3.5432,3.5251,3.5249,3.5248,3.5112,3.511,3.5108,3.5025,3.5024,3.5024,3.5024,3.4872,3.4867,3.4863,0,0,0,0,0,0,0,0,0,0,0,0,0,3.5331,3.5431,3.5251,3.519,3.5183,3.5112,3.511,3.5107,3.5025,3.5024,3.5024,3.5023,3.4873,3.4868,3.4862,3.4838,0,0,3.4845,3.4843,0,0,0,0,0,0,0,0,3.5337,3.5325,3.5201,3.5194,3.5186,3.5085,3.5119,3.5017,3.5025,3.5085,3.5024,3.5023,3.4942,3.493,3.4905,3.4831,3.4824,3.4844,3.4841,3.4839,3.4837,0,0,0,0,0,0,0,3.5345,3.533,3.5195,3.5199,3.519,3.5166,3.5151,3.5099,3.5017,3.5079,3.5073,3.5058,3.4937,3.4911,3.4901,3.4822,3.4845,3.484,3.4836,3.4834,3.472,3.4721,0,0,0,0,0,0,3.5363,3.5337,3.52,3.5191,3.5262,3.5163,3.5146,3.5118,3.5018,3.5002,3.5059,3.5055,3.4921,3.4907,3.4895,3.486,3.4839,3.4833,3.483,3.472,3.472,3.4721,0,0,0,0,0,0,3.5367,3.5352,3.5205,3.5262,3.5242,3.5161,3.513,3.5116,3.5089,3.5003,3.4987,3.5047,3.492,3.4903,3.4854,3.4854,3.4831,3.4826,3.4719,3.472,3.4721,3.4791,0,0,0,0,0,0,3.5373,3.5354,3.5346,3.5263,3.5239,3.517,3.513,3.5113,3.5081,3.5074,3.4987,3.4972,3.4918,3.4862,3.4848,3.4845,3.4821,3.4719,3.472,3.472,3.4788,3.4793,3.4798,0,0,0,0,0,3.538,3.5369,3.5346,3.533,3.5229,3.517,3.5156,3.5097,3.5081,3.5071,3.5016,3.4975,3.4856,3.4858,3.4841,3.4837,3.4719,3.472,3.472,3.4785,3.4792,3.4798,0,0,0,0,0,0,3.5451,3.5357,3.5331,3.5293,3.5241,3.5156,3.5142,3.5106,3.5054,3.5049,3.4975,3.4956,3.4913,3.487,3.4873,3.4808,3.4783,3.478,3.4838,3.4844,3.4849,3.486,3.4817,0,0,0,0,0,3.5463,3.5426,3.5345,3.532,3.5295,3.5224,3.5195,3.5155,3.5095,3.5072,3.5012,3.4954,3.4903,3.4871,3.4819,3.4781,3.476,3.477,3.4775,3.478,3.4778,3.4753,3.4757,3.4723,3.4723,3.4723,0,0,3.5485,3.543,3.5411,3.5333,3.5287,3.5248,3.5205,3.5165,3.5134,3.5064,3.5015,3.497,3.4899,3.4855,3.4833,3.4817,3.4783,3.4781,3.4785,3.478,3.4755,3.4758,3.4761,3.4724,3.4724,3.4724,0,0,3.5507,3.5463,3.5437,3.5393,3.5326,3.5278,3.5272,3.5193,3.5161,3.5112,3.5058,3.5019,3.4933,3.4885,3.485,3.4854,3.4814,3.4839,3.4866,3.4843,3.4846,3.4847,3.4848,3.485,3.4838,3.4838,3.4838,0,3.5543,3.5486,3.5427,3.5391,3.5357,3.5296,3.5268,3.5227,3.5145,3.5121,3.5107,3.4999,3.4946,3.489,3.4892,3.4865,3.4854,3.4849,3.4851,3.4852,3.4853,3.4852,3.4853,3.4842,3.4841,3.4841,3.4841,0,3.5533,3.5494,3.548,3.5407,3.5372,3.5339,3.5273,3.5244,3.5206,3.5159,3.5108,3.5044,3.4979,3.4962,3.4923,3.49,3.4893,3.4866,3.4838,3.486,3.4859,3.4858,3.4847,3.4845,3.4844,3.4844,0,0,3.5594,3.5491,3.5487,3.5453,3.5375,3.5341,3.5305,3.5245,3.5221,3.5166,3.5132,3.5062,3.5037,3.4996,3.4952,3.4932,3.4939,3.4906,3.4903,3.4914,3.4907,3.4929,3.493,3.4912,3.4912,3.4912,3.4913,0,3.5604,3.5541,3.5488,3.5443,3.5405,3.5346,3.5314,3.5261,3.5217,3.5175,3.5124,3.5076,3.5046,3.5021,3.4999,3.4943,3.4936,3.4942,3.4877,3.4876,3.4897,3.4929,3.4951,3.4955,3.4912,3.4912,3.4912,0,3.5607,3.5559,3.5512,3.5439,3.542,3.5393,3.5334,3.5296,3.5233,3.5202,3.5158,3.5112,3.5068,3.5047,3.4984,3.4989,3.4959,3.4928,3.4926,3.4917,3.4895,3.492,3.4955,3.4956,3.4911,3.4911,3.4911,0,3.5656,3.5579,3.5541,3.5514,3.5427,3.5409,3.5371,3.5309,3.5276,3.5223,3.52,3.5141,3.5108,3.5062,3.5,3.4991,3.4944,3.4917,3.4914,3.4916,3.4906,3.4907,3.4937,3.4889,3.4889,3.4889,3.4889,0,3.5673,3.5646,3.5562,3.5539,3.5506,3.5443,3.5411,3.5368,3.5313,3.5278,3.5222,3.5189,3.511,3.5067,3.5018,3.4973,3.4958,3.4929,3.4916,3.4934,3.4938,3.4913,3.491,3.4889,3.4889,3.4889,3.4889,0,3.5721,3.5665,3.5619,3.5542,3.5522,3.5501,3.5433,3.5406,3.5359,3.5315,3.53,3.5225,3.5172,3.5106,3.503,3.4997,3.4956,3.4937,3.4979,3.4971,3.4971,3.4972,3.4985,3.4983,3.4938,3.4938,3.4939,0,3.5735,3.5714,3.5635,3.561,3.5575,3.5533,3.5501,3.5437,3.5405,3.5333,3.5314,3.5257,3.5208,3.5124,3.506,3.5002,3.498,3.4989,3.4971,3.4989,3.4979,3.4981,3.4978,3.4993,3.4994,3.4995,3.4995,0,3.5765,3.5739,3.5696,3.5644,3.5607,3.5562,3.5513,3.5494,3.542,3.5386,3.5333,3.5295,3.5219,3.5162,3.5096,3.5052,3.5011,3.5002,3.4998,3.5015,3.504,3.5026,3.4991,3.5001,3.5001,3.5,3.5,3.5,3.5796,3.5774,3.5717,3.567,3.5628,3.5585,3.5556,3.5507,3.5463,3.5399,3.5363,3.531,3.5247,3.5154,3.5113,3.5068,3.5053,3.5047,3.5046,3.5045,3.505,3.5049,3.5055,3.5055,3.5055,3.5055,3.5054,0,3.5823,3.5783,3.5742,3.5678,3.5641,3.561,3.5554,3.5524,3.548,3.5427,3.5381,3.5319,3.5263,3.5196,3.5136,3.5113,3.5092,3.5099,3.5099,3.509,3.5067,3.5077,3.5117,3.5117,3.5117,3.5117,3.5117,3.5117,3.5833,3.5794,3.5761,3.57,3.5659,3.5611,3.5582,3.554,3.5498,3.5432,3.5388,3.5346,3.5286,3.5221,3.5168,3.5149,3.5129,3.5142,3.5117,3.5097,3.5092,3.5086,3.5095,3.5138,3.5138,3.5143,3.5143,3.5143]}]]